カタログに戻る

FENGYUN 1C DEB

LostSSO
NORAD 37419·DEBRIS·🇨🇳 China

打ち上げ May 10, 1999 から Taiyuan Satellite Launch Center

Loading…

次のパス (今後24時間)

TLE

古いSource: Space-Track

元期: Jul 8, 2026, 08:15 UTC

1 37419U 99025EGM 26189.34379721  .00002381  00000-0  90817-3 0  9993
2 37419  98.5667 219.9813 0368011 320.2645  37.2083 14.00445751332542

AllMySatでFENGYUN 1C DEBをリアルタイム追跡

Download on the App Store